| time (UTC) | temp F | wind direction | speed knots | gust knots | rain 1hr in | rain 24hr in | rain mn in | humidity % | barometer mb |
| 20260507223655 | 64 | 339 | 2.6 | 7.8 | 0.00 | 0.16 | 0.03 | 29 | 978.6 |
| 20260507223153 | 64 | 299 | 3.5 | 7.8 | 0.00 | 0.17 | 0.03 | 27 | 978.6 |
| 20260507222654 | 65 | 340 | 2.6 | 7.8 | 0.00 | 0.17 | 0.03 | 28 | 978.6 |
| 20260507222153 | 66 | 309 | 1.7 | 7.0 | 0.00 | 0.18 | 0.03 | 27 | 978.6 |
| 20260507221653 | 66 | 305 | 2.6 | 8.7 | 0.00 | 0.18 | 0.03 | 26 | 978.7 |
| 20260507221153 | 66 | 48 | 2.6 | 8.7 | 0.00 | 0.19 | 0.03 | 28 | 978.8 |
| 20260507220658 | 66 | 341 | 3.5 | 11.3 | 0.00 | 0.21 | 0.03 | 29 | 979.1 |
| 20260507220654 | 66 | 296 | 2.6 | 7.8 | 0.00 | 0.20 | 0.03 | 26 | 978.8 |
| 20260507220152 | 66 | 88 | 2.6 | 7.8 | 0.00 | 0.21 | 0.03 | 27 | 979.1 |
| 20260507215153 | 65 | 195 | 2.6 | 11.3 | 0.00 | 0.22 | 0.03 | 27 | 979.2 |
| 20260507214653 | 66 | 224 | 2.6 | 9.6 | 0.00 | 0.22 | 0.03 | 27 | 979.2 |
| 20260507214156 | 64 | 11 | 3.5 | 9.6 | 0.00 | 0.23 | 0.03 | 30 | 979.3 |
| 20260507214152 | 65 | 342 | 3.5 | 9.6 | 0.00 | 0.23 | 0.03 | 30 | 979.2 |
| 20260507213151 | 65 | 326 | 2.6 | 7.0 | 0.00 | 0.24 | 0.03 | 31 | 979.3 |
| 20260507212651 | 64 | 315 | 3.5 | 7.8 | 0.00 | 0.24 | 0.03 | 29 | 979.3 |
| 20260507212151 | 64 | 355 | 4.3 | 10.4 | 0.00 | 0.25 | 0.03 | 31 | 979.3 |
| 20260507211649 | 64 | 333 | 4.3 | 10.4 | 0.00 | 0.25 | 0.03 | 31 | 979.4 |
| 20260507211147 | 64 | 334 | 4.3 | 10.4 | 0.00 | 0.26 | 0.03 | 33 | 979.4 |
| 20260507210647 | 64 | 338 | 4.3 | 10.4 | 0.00 | 0.27 | 0.03 | 34 | 979.5 |
| 20260507210147 | 63 | 337 | 5.2 | 10.4 | 0.00 | 0.27 | 0.03 | 36 | 979.5 |
| 20260507205645 | 63 | 15 | 5.2 | 13.0 | 0.00 | 0.28 | 0.03 | 33 | 979.6 |
| 20260507205145 | 63 | 349 | 4.3 | 13.0 | 0.00 | 0.28 | 0.03 | 33 | 979.6 |
| 20260507204643 | 63 | 333 | 4.3 | 8.7 | 0.00 | 0.28 | 0.03 | 34 | 979.5 |
| 20260507204143 | 63 | 322 | 4.3 | 13.9 | 0.00 | 0.29 | 0.03 | 34 | 979.6 |
| 20260507203644 | 63 | 335 | 4.3 | 13.9 | 0.00 | 0.29 | 0.03 | 32 | 979.8 |
| 20260507203147 | 62 | 14 | 4.3 | 9.6 | 0.00 | 0.30 | 0.03 | 32 | 979.9 |
| 20260507203143 | 62 | 26 | 4.3 | 9.6 | 0.00 | 0.30 | 0.03 | 34 | 979.6 |
| 20260507202141 | 62 | 315 | 3.5 | 9.6 | 0.00 | 0.30 | 0.03 | 32 | 980.0 |
| 20260507201641 | 62 | 315 | 2.6 | 7.0 | 0.00 | 0.30 | 0.03 | 34 | 980.0 |
| 20260507201141 | 61 | 325 | 2.6 | 7.0 | 0.00 | 0.31 | 0.03 | 34 | 980.0 |
| 20260507200642 | 61 | 20 | 1.7 | 7.0 | 0.00 | 0.31 | 0.03 | 32 | 980.1 |
| 20260507200142 | 61 | 240 | 1.7 | 7.8 | 0.00 | 0.32 | 0.03 | 37 | 980.2 |
| 20260507195648 | 61 | 273 | 2.6 | 9.6 | 0.00 | 0.32 | 0.03 | 34 | 980.2 |
| 20260507195141 | 60 | 301 | 2.6 | 9.6 | 0.00 | 0.32 | 0.03 | 33 | 980.4 |
| 20260507194646 | 61 | 299 | 1.7 | 9.6 | 0.00 | 0.33 | 0.03 | 34 | 980.4 |
| 20260507194145 | 61 | 219 | 1.7 | 7.8 | 0.00 | 0.33 | 0.03 | 35 | 980.4 |
| 20260507194141 | 61 | 308 | 1.7 | 7.8 | 0.00 | 0.33 | 0.03 | 34 | 980.4 |
| 20260507193139 | 61 | 312 | 1.7 | 6.1 | 0.00 | 0.33 | 0.03 | 38 | 980.4 |
| 20260507192639 | 61 | 281 | 0.9 | 6.1 | 0.00 | 0.34 | 0.03 | 35 | 980.4 |
| 20260507192139 | 61 | 243 | 0.9 | 5.2 | 0.00 | 0.34 | 0.03 | 33 | 980.5 |
| 20260507191639 | 61 | 188 | 1.7 | 6.1 | 0.00 | 0.34 | 0.03 | 35 | 980.5 |
| 20260507191143 | 61 | 248 | 1.7 | 5.2 | 0.00 | 0.35 | 0.03 | 37 | 980.6 |
| 20260507191139 | 61 | 295 | 1.7 | 6.1 | 0.00 | 0.34 | 0.03 | 34 | 980.5 |
| 20260507190139 | 60 | 321 | 1.7 | 5.2 | 0.00 | 0.35 | 0.03 | 38 | 980.6 |
| 20260507185639 | 60 | 210 | 0.9 | 6.1 | 0.00 | 0.35 | 0.03 | 34 | 980.7 |
| 20260507185142 | 60 | 304 | 0.9 | 4.3 | 0.00 | 0.36 | 0.03 | 37 | 980.9 |
| 20260507185137 | 60 | 304 | 0.9 | 6.1 | 0.00 | 0.36 | 0.03 | 34 | 980.8 |
| 20260507184137 | 59 | 181 | 1.7 | 7.8 | 0.00 | 0.36 | 0.03 | 39 | 981.1 |
| 20260507183635 | 59 | 198 | 1.7 | 7.8 | 0.00 | 0.36 | 0.03 | 37 | 980.9 |
| 20260507183135 | 58 | 304 | 1.7 | 6.1 | 0.00 | 0.36 | 0.03 | 38 | 981.1 |
| 20260507182639 | 58 | 247 | 1.7 | 4.3 | 0.00 | 0.36 | 0.03 | 45 | 981.3 |
| 20260507182634 | 58 | 264 | 1.7 | 6.1 | 0.00 | 0.36 | 0.03 | 38 | 981.2 |
| 20260507181634 | 58 | 203 | 0.9 | 4.3 | 0.00 | 0.36 | 0.03 | 40 | 981.3 |
| 20260507181132 | 57 | 174 | 0.9 | 3.5 | 0.00 | 0.36 | 0.03 | 39 | 981.3 |
| 20260507180633 | 57 | 217 | 0.9 | 3.5 | 0.00 | 0.36 | 0.03 | 39 | 981.4 |
| 20260507180133 | 57 | 222 | 0.9 | 4.3 | 0.00 | 0.36 | 0.03 | 43 | 981.3 |
| 20260507175633 | 57 | 191 | 0.9 | 4.3 | 0.00 | 0.36 | 0.03 | 40 | 981.3 |
| 20260507175133 | 57 | 256 | 0.9 | 5.2 | 0.00 | 0.36 | 0.03 | 40 | 981.2 |
| 20260507174632 | 57 | 200 | 1.7 | 5.2 | 0.00 | 0.36 | 0.03 | 39 | 981.3 |
| 20260507174133 | 57 | 186 | 1.7 | 6.1 | 0.00 | 0.36 | 0.03 | 38 | 981.3 |
| 20260507173633 | 58 | 234 | 2.6 | 7.0 | 0.00 | 0.36 | 0.03 | 42 | 981.3 |
| 20260507173132 | 57 | 186 | 2.6 | 7.0 | 0.00 | 0.36 | 0.03 | 40 | 981.3 |
| 20260507172633 | 57 | 192 | 1.7 | 6.1 | 0.01 | 0.36 | 0.03 | 40 | 981.4 |
| 20260507172133 | 58 | 229 | 0.9 | 4.3 | 0.01 | 0.36 | 0.03 | 39 | 981.5 |
| 20260507171638 | 56 | 234 | 1.7 | 7.0 | 0.02 | 0.36 | 0.03 | 41 | 981.7 |
| 20260507171633 | 57 | 275 | 0.9 | 4.3 | 0.01 | 0.36 | 0.03 | 40 | 981.5 |
| 20260507170637 | 56 | 221 | 1.7 | 7.0 | 0.02 | 0.36 | 0.03 | 40 | 981.8 |
| 20260507170632 | 56 | 212 | 1.7 | 7.0 | 0.02 | 0.36 | 0.03 | 39 | 981.7 |
| 20260507165635 | 56 | 246 | 2.6 | 7.0 | 0.03 | 0.36 | 0.03 | 39 | 981.8 |
| 20260507165631 | 56 | 242 | 1.7 | 7.0 | 0.03 | 0.36 | 0.03 | 41 | 981.8 |
| 20260507164631 | 56 | 217 | 2.6 | 6.1 | 0.03 | 0.36 | 0.03 | 38 | 981.9 |
| 20260507164128 | 55 | 178 | 2.6 | 7.0 | 0.03 | 0.36 | 0.03 | 39 | 982.0 |
| 20260507163628 | 55 | 183 | 3.5 | 7.0 | 0.03 | 0.36 | 0.03 | 41 | 982.0 |
| 20260507163129 | 55 | 191 | 2.6 | 6.1 | 0.03 | 0.36 | 0.03 | 40 | 981.9 |
| 20260507162628 | 54 | 238 | 2.6 | 5.2 | 0.02 | 0.35 | 0.03 | 41 | 982.0 |
| 20260507162130 | 54 | 210 | 2.6 | 5.2 | 0.02 | 0.35 | 0.02 | 39 | 982.0 |
| 20260507161629 | 53 | 195 | 2.6 | 5.2 | 0.02 | 0.35 | 0.02 | 40 | 982.1 |
| 20260507161129 | 53 | 214 | 2.6 | 6.1 | 0.01 | 0.34 | 0.02 | 40 | 982.1 |
| 20260507160629 | 53 | 233 | 2.6 | 6.1 | 0.01 | 0.34 | 0.01 | 41 | 982.1 |
| 20260507160129 | 52 | 206 | 2.6 | 6.1 | 0.01 | 0.34 | 0.01 | 43 | 982.2 |
| 20260507155628 | 52 | 183 | 2.6 | 7.8 | 0.00 | 0.33 | 0.01 | 43 | 982.2 |
| 20260507155129 | 51 | 207 | 3.5 | 7.8 | 0.00 | 0.33 | 0.00 | 42 | 982.2 |
| 20260507154634 | 51 | 223 | 3.5 | 7.8 | 0.00 | 0.33 | 0.00 | 44 | 982.1 |
| 20260507154629 | 51 | 222 | 3.5 | 7.0 | 0.00 | 0.33 | 0.00 | 43 | 982.1 |
| 20260507153629 | 51 | 238 | 3.5 | 7.8 | 0.00 | 0.33 | 0.00 | 43 | 982.2 |
| 20260507153127 | 50 | 221 | 3.5 | 7.0 | 0.00 | 0.33 | 0.00 | 43 | 982.2 |
| 20260507152627 | 50 | 229 | 3.5 | 7.0 | 0.00 | 0.33 | 0.00 | 42 | 982.2 |
| 20260507152127 | 49 | 205 | 3.5 | 7.0 | 0.00 | 0.33 | 0.00 | 43 | 982.1 |
| 20260507151627 | 49 | 212 | 3.5 | 7.0 | 0.00 | 0.33 | 0.00 | 43 | 982.1 |
| 20260507151127 | 49 | 203 | 3.5 | 7.0 | 0.00 | 0.33 | 0.00 | 44 | 982.0 |
| 20260507150632 | 48 | 242 | 2.6 | 7.8 | 0.00 | 0.33 | 0.00 | 43 | 982.2 |
| 20260507150627 | 48 | 221 | 3.5 | 7.8 | 0.00 | 0.33 | 0.00 | 42 | 982.1 |
| 20260507150126 | 48 | 214 | 3.5 | 7.8 | 0.00 | 0.33 | 0.00 | 43 | 982.2 |
| 20260507145732 | 47 | 213 | 1.7 | 7.0 | 0.00 | 0.33 | 0.00 | 44 | 982.2 |
| 20260507144627 | 46 | 206 | 2.6 | 6.1 | 0.00 | 0.33 | 0.00 | 44 | 982.2 |
| 20260507144126 | 46 | 169 | 3.5 | 6.1 | 0.00 | 0.33 | 0.00 | 47 | 982.2 |
| 20260507143626 | 45 | 236 | 2.6 | 5.2 | 0.00 | 0.33 | 0.00 | 47 | 982.2 |
| 20260507143130 | 44 | 193 | 2.6 | 7.0 | 0.00 | 0.33 | 0.00 | 50 | 982.1 |
| 20260507143126 | 45 | 211 | 2.6 | 6.1 | 0.00 | 0.33 | 0.00 | 49 | 982.1 |
| 20260507142126 | 43 | 231 | 2.6 | 7.0 | 0.00 | 0.33 | 0.00 | 50 | 982.1 |
| 20260507141625 | 43 | 178 | 1.7 | 6.1 | 0.00 | 0.33 | 0.00 | 49 | 982.2 |
| 20260507141125 | 42 | 196 | 1.7 | 5.2 | 0.00 | 0.33 | 0.00 | 49 | 982.4 |
| 20260507140622 | 42 | 242 | 1.7 | 5.2 | 0.00 | 0.33 | 0.00 | 50 | 982.2 |
| 20260507140123 | 41 | 237 | 1.7 | 5.2 | 0.00 | 0.33 | 0.00 | 51 | 982.2 |
| 20260507135623 | 40 | 229 | 0.9 | 5.2 | 0.00 | 0.33 | 0.00 | 53 | 982.2 |
| 20260507135123 | 37 | 198 | 0.0 | 1.7 | 0.00 | 0.33 | 0.00 | 61 | 982.1 |
| 20260507134623 | 36 | 179 | 0.0 | 0.0 | 0.00 | 0.33 | 0.00 | 66 | 982.0 |
| 20260507134128 | 35 | 192 | 0.0 | 0.9 | 0.00 | 0.33 | 0.00 | 64 | 982.1 |
| 20260507134122 | 35 | 193 | 0.0 | 0.0 | 0.00 | 0.33 | 0.00 | 66 | 982.0 |
| 20260507133619 | 35 | 193 | 0.0 | 0.0 | 0.00 | 0.33 | 0.00 | 65 | 982.0 |
| 20260507132618 | 35 | 203 | 0.0 | 0.9 | 0.00 | 0.33 | 0.00 | 63 | 982.1 |
| 20260507132117 | 35 | 124 | 0.0 | 0.0 | 0.00 | 0.33 | 0.00 | 61 | 982.0 |
| 20260507131616 | 35 | 124 | 0.0 | 0.0 | 0.00 | 0.33 | 0.00 | 60 | 982.0 |
| 20260507131116 | 36 | 124 | 0.0 | 0.0 | 0.00 | 0.33 | 0.00 | 59 | 982.0 |
| 20260507130616 | 37 | 120 | 0.0 | 0.9 | 0.00 | 0.33 | 0.00 | 56 | 981.9 |
| 20260507130116 | 38 | 119 | 0.0 | 1.7 | 0.00 | 0.33 | 0.00 | 53 | 981.9 |
| 20260507125616 | 39 | 134 | 0.0 | 1.7 | 0.00 | 0.33 | 0.00 | 46 | 981.9 |
| 20260507125116 | 39 | 261 | 0.9 | 2.6 | 0.00 | 0.33 | 0.00 | 46 | 981.8 |
| 20260507124616 | 39 | 248 | 0.9 | 6.1 | 0.00 | 0.33 | 0.00 | 47 | 981.8 |
| 20260507124116 | 38 | 221 | 0.9 | 6.1 | 0.00 | 0.33 | 0.00 | 47 | 981.5 |
| 20260507123620 | 35 | 162 | 0.0 | 2.6 | 0.00 | 0.33 | 0.00 | 53 | 981.4 |
| 20260507123616 | 38 | 222 | 0.9 | 4.3 | 0.00 | 0.33 | 0.00 | 48 | 981.5 |
| 20260507123114 | 37 | 199 | 0.0 | 4.3 | 0.00 | 0.33 | 0.00 | 50 | 981.4 |
| 20260507122720 | 34 | 202 | 0.0 | 2.6 | 0.00 | 0.33 | 0.00 | 57 | 981.4 |
| 20260507121618 | 31 | 245 | 0.0 | 0.0 | 0.00 | 0.33 | 0.00 | 65 | 981.4 |
| 20260507121614 | 33 | 227 | 0.0 | 2.6 | 0.00 | 0.33 | 0.00 | 59 | 981.4 |
| 20260507120614 | 31 | 316 | 0.0 | 0.0 | 0.00 | 0.33 | 0.00 | 64 | 981.3 |
| 20260507120114 | 31 | 224 | 0.0 | 0.0 | 0.00 | 0.33 | 0.00 | 63 | 981.3 |
| 20260507115614 | 31 | 148 | 0.0 | 0.0 | 0.00 | 0.33 | 0.00 | 63 | 981.3 |
| 20260507115114 | 32 | 39 | 0.0 | 0.0 | 0.00 | 0.33 | 0.00 | 61 | 981.4 |
| 20260507114615 | 33 | 39 | 0.0 | 0.0 | 0.00 | 0.33 | 0.00 | 58 | 981.4 |
| 20260507114118 | 37 | 235 | 1.7 | 4.3 | 0.00 | 0.33 | 0.00 | 49 | 981.4 |
| 20260507114112 | 36 | 72 | 0.0 | 3.5 | 0.00 | 0.33 | 0.00 | 54 | 981.4 |
| 20260507113612 | 37 | 56 | 0.9 | 4.3 | 0.00 | 0.33 | 0.00 | 49 | 981.3 |
| 20260507112612 | 36 | 214 | 1.7 | 4.3 | 0.00 | 0.33 | 0.00 | 51 | 981.4 |
| 20260507112112 | 34 | 233 | 0.9 | 4.3 | 0.00 | 0.33 | 0.00 | 55 | 981.4 |
| 20260507111612 | 30 | 160 | 0.0 | 2.6 | 0.00 | 0.33 | 0.00 | 65 | 981.4 |
| 20260507111112 | 29 | 18 | 0.0 | 0.9 | 0.00 | 0.33 | 0.00 | 71 | 981.3 |
| 20260507110616 | 28 | 219 | 0.0 | 0.0 | 0.00 | 0.33 | 0.00 | 69 | 981.3 |
| 20260507110612 | 28 | 219 | 0.0 | 0.0 | 0.00 | 0.33 | 0.00 | 70 | 981.3 |
| 20260507110217 | 29 | 219 | 0.0 | 0.0 | 0.00 | 0.33 | 0.00 | 68 | 981.4 |
| 20260507105715 | 29 | 219 | 0.0 | 0.0 | 0.00 | 0.33 | 0.00 | 69 | 981.3 |
| 20260507104610 | 30 | 219 | 0.0 | 0.0 | 0.00 | 0.33 | 0.00 | 66 | 981.3 |
| 20260507104110 | 31 | 219 | 0.0 | 0.0 | 0.00 | 0.33 | 0.00 | 64 | 981.4 |
| 20260507103610 | 32 | 235 | 0.0 | 0.0 | 0.00 | 0.33 | 0.00 | 61 | 981.4 |
| 20260507103110 | 34 | 235 | 0.0 | 0.0 | 0.00 | 0.33 | 0.00 | 58 | 981.3 |
| 20260507102610 | 35 | 235 | 0.0 | 0.0 | 0.00 | 0.33 | 0.00 | 55 | 981.4 |
| 20260507102110 | 36 | 238 | 0.0 | 0.9 | 0.00 | 0.33 | 0.00 | 51 | 981.4 |
| 20260507101610 | 36 | 212 | 0.0 | 1.7 | 0.00 | 0.33 | 0.00 | 52 | 981.4 |
| 20260507101117 | 38 | 269 | 1.7 | 3.5 | 0.00 | 0.33 | 0.00 | 46 | 981.5 |
| 20260507101110 | 38 | 162 | 0.0 | 2.6 | 0.00 | 0.33 | 0.00 | 46 | 981.5 |
| 20260507100610 | 38 | 214 | 0.9 | 3.5 | 0.00 | 0.33 | 0.00 | 45 | 981.5 |
| 20260507100216 | 38 | 202 | 2.6 | 7.0 | 0.00 | 0.33 | 0.00 | 47 | 981.5 |
| 20260507095610 | 38 | 191 | 1.7 | 4.3 | 0.00 | 0.33 | 0.00 | 47 | 981.4 |
| 20260507094608 | 38 | 157 | 2.6 | 7.0 | 0.00 | 0.33 | 0.00 | 48 | 981.5 |
| 20260507094108 | 38 | 206 | 2.6 | 7.0 | 0.00 | 0.33 | 0.00 | 47 | 981.7 |
| 20260507093606 | 38 | 248 | 1.7 | 5.2 | 0.00 | 0.33 | 0.00 | 47 | 981.8 |
| 20260507093106 | 38 | 221 | 1.7 | 5.2 | 0.00 | 0.33 | 0.00 | 47 | 981.7 |
| 20260507092610 | 37 | 235 | 1.7 | 4.3 | 0.00 | 0.33 | 0.00 | 48 | 981.5 |
| 20260507092606 | 37 | 230 | 1.7 | 5.2 | 0.00 | 0.33 | 0.00 | 48 | 981.7 |
| 20260507092216 | 37 | 198 | 1.7 | 5.2 | 0.00 | 0.33 | 0.00 | 50 | 981.8 |
| 20260507092212 | 37 | 184 | 1.7 | 4.3 | 0.00 | 0.33 | 0.00 | 49 | 981.8 |
| 20260507090609 | 36 | 198 | 1.7 | 4.3 | 0.00 | 0.33 | 0.00 | 52 | 981.8 |
| 20260507090605 | 37 | 225 | 1.7 | 5.2 | 0.00 | 0.33 | 0.00 | 50 | 981.8 |
| 20260507085606 | 36 | 221 | 2.6 | 4.3 | 0.00 | 0.33 | 0.00 | 53 | 981.8 |
| 20260507085104 | 35 | 223 | 1.7 | 4.3 | 0.00 | 0.33 | 0.00 | 55 | 981.8 |
| 20260507084608 | 34 | 230 | 0.9 | 5.2 | 0.00 | 0.33 | 0.00 | 58 | 982.0 |
| 20260507084604 | 35 | 180 | 1.7 | 5.2 | 0.00 | 0.33 | 0.00 | 57 | 981.9 |
| 20260507083603 | 34 | 245 | 0.0 | 3.5 | 0.00 | 0.33 | 0.00 | 58 | 982.0 |
| 20260507083107 | 34 | 243 | 0.9 | 3.5 | 0.00 | 0.33 | 0.00 | 60 | 981.9 |
| 20260507083103 | 34 | 256 | 0.0 | 1.7 | 0.00 | 0.33 | 0.00 | 59 | 982.0 |
| 20260507082104 | 33 | 198 | 0.9 | 3.5 | 0.00 | 0.33 | 0.00 | 62 | 981.9 |
| 20260507081604 | 33 | 205 | 0.9 | 2.6 | 0.00 | 0.33 | 0.00 | 64 | 981.9 |
| 20260507081104 | 32 | 231 | 0.9 | 2.6 | 0.00 | 0.33 | 0.00 | 67 | 982.0 |
| 20260507080601 | 31 | 210 | 0.0 | 2.6 | 0.00 | 0.33 | 0.00 | 71 | 982.0 |
| 20260507075602 | 27 | 224 | 0.0 | 0.9 | 0.00 | 0.33 | 0.00 | 85 | 982.1 |
| 20260507075102 | 25 | 160 | 0.0 | 0.9 | 0.00 | 0.33 | 0.00 | 89 | 982.1 |
| 20260507074607 | 24 | 183 | 0.0 | 0.0 | 0.00 | 0.33 | 0.00 | 87 | 982.5 |
| 20260507074602 | 24 | 183 | 0.0 | 0.0 | 0.00 | 0.33 | 0.00 | 88 | 982.2 |
| 20260507074101 | 24 | 183 | 0.0 | 0.0 | 0.00 | 0.33 | 0.00 | 88 | 982.5 |
| 20260507073707 | 25 | 183 | 0.0 | 0.0 | 0.00 | 0.33 | 0.00 | 87 | 982.5 |
| 20260507073101 | 25 | 183 | 0.0 | 0.0 | 0.00 | 0.33 | 0.00 | 87 | 982.5 |
| 20260507072101 | 25 | 183 | 0.0 | 0.0 | 0.00 | 0.33 | 0.00 | 86 | 982.5 |
| 20260507071601 | 25 | 183 | 0.0 | 0.0 | 0.00 | 0.33 | 0.00 | 87 | 982.5 |
| 20260507071105 | 26 | 183 | 0.0 | 0.0 | 0.00 | 0.33 | 0.00 | 88 | 982.5 |
| 20260507071101 | 26 | 183 | 0.0 | 0.0 | 0.00 | 0.33 | 0.00 | 88 | 982.5 |
| 20260507065601 | 25 | 184 | 0.0 | 0.0 | 0.00 | 0.33 | 0.00 | 89 | 982.6 |
| 20260507065106 | 26 | 184 | 0.0 | 0.0 | 0.00 | 0.33 | 0.00 | 89 | 982.6 |
| 20260507065102 | 26 | 184 | 0.0 | 0.0 | 0.00 | 0.33 | 0.00 | 89 | 982.5 |
| 20260507064101 | 26 | 184 | 0.0 | 0.0 | 0.00 | 0.33 | 0.00 | 90 | 982.7 |
| 20260507063601 | 26 | 184 | 0.0 | 0.0 | 0.00 | 0.33 | 0.00 | 90 | 982.6 |
| 20260507063101 | 26 | 184 | 0.0 | 0.0 | 0.00 | 0.33 | 0.00 | 89 | 982.6 |
| 20260507062601 | 26 | 184 | 0.0 | 0.0 | 0.00 | 0.33 | 0.00 | 88 | 982.5 |
| 20260507062107 | 26 | 184 | 0.0 | 0.0 | 0.00 | 0.33 | 0.00 | 90 | 982.5 |
| 20260507062101 | 26 | 184 | 0.0 | 0.0 | 0.00 | 0.33 | 0.00 | 89 | 982.5 |
| 20260507061602 | 26 | 184 | 0.0 | 0.0 | 0.00 | 0.33 | 0.00 | 89 | 982.5 |
| 20260507060601 | 26 | 184 | 0.0 | 0.0 | 0.00 | 0.33 | 0.00 | 90 | 982.6 |
| 20260507055604 | 26 | 202 | 0.0 | 0.0 | 0.00 | 0.33 | 0.33 | 90 | 982.6 |
| 20260507055600 | 26 | 201 | 0.0 | 0.0 | 0.00 | 0.33 | 0.33 | 90 | 982.5 |
| 20260507054605 | 26 | 202 | 0.0 | 0.0 | 0.00 | 0.33 | 0.33 | 88 | 982.5 |
| 20260507054600 | 26 | 202 | 0.0 | 0.0 | 0.00 | 0.33 | 0.33 | 90 | 982.6 |
| 20260507054100 | 26 | 202 | 0.0 | 0.0 | 0.00 | 0.33 | 0.33 | 89 | 982.5 |
| 20260507053100 | 27 | 202 | 0.0 | 0.0 | 0.00 | 0.33 | 0.33 | 88 | 982.5 |
| 20260507052600 | 27 | 202 | 0.0 | 0.0 | 0.00 | 0.33 | 0.33 | 88 | 982.5 |
| 20260507052059 | 28 | 202 | 0.0 | 0.0 | 0.00 | 0.33 | 0.33 | 87 | 982.4 |
| 20260507051600 | 28 | 202 | 0.0 | 0.0 | 0.00 | 0.33 | 0.33 | 87 | 982.4 |
| 20260507051100 | 28 | 202 | 0.0 | 0.0 | 0.00 | 0.33 | 0.33 | 87 | 982.4 |
| 20260507050559 | 28 | 202 | 0.0 | 0.0 | 0.00 | 0.33 | 0.33 | 87 | 982.4 |
| 20260507050057 | 28 | 202 | 0.0 | 0.0 | 0.00 | 0.33 | 0.33 | 87 | 982.4 |
| 20260507045557 | 29 | 202 | 0.0 | 0.0 | 0.00 | 0.33 | 0.33 | 86 | 982.4 |
| 20260507045056 | 29 | 202 | 0.0 | 0.0 | 0.00 | 0.33 | 0.33 | 85 | 982.4 |
| 20260507044600 | 30 | 202 | 0.0 | 0.0 | 0.00 | 0.33 | 0.33 | 85 | 982.4 |
| 20260507044556 | 29 | 202 | 0.0 | 0.0 | 0.00 | 0.33 | 0.33 | 86 | 982.5 |
| 20260507043556 | 30 | 202 | 0.0 | 0.0 | 0.00 | 0.33 | 0.33 | 84 | 982.4 |
| 20260507043055 | 30 | 202 | 0.0 | 0.0 | 0.00 | 0.33 | 0.33 | 83 | 982.2 |
| 20260507042554 | 31 | 202 | 0.0 | 0.0 | 0.00 | 0.33 | 0.33 | 83 | 982.2 |
| 20260507042056 | 31 | 202 | 0.0 | 0.0 | 0.00 | 0.33 | 0.33 | 83 | 982.2 |
| 20260507042052 | 31 | 202 | 0.0 | 0.0 | 0.00 | 0.33 | 0.33 | 83 | 982.1 |
| 20260507041056 | 31 | 202 | 0.0 | 0.0 | 0.00 | 0.33 | 0.33 | 82 | 982.0 |
| 20260507041052 | 31 | 202 | 0.0 | 0.0 | 0.00 | 0.33 | 0.33 | 82 | 982.1 |
| 20260507040052 | 32 | 202 | 0.0 | 0.0 | 0.00 | 0.33 | 0.33 | 81 | 982.1 |
| 20260507035552 | 32 | 201 | 0.0 | 1.7 | 0.00 | 0.33 | 0.33 | 80 | 982.1 |
| 20260507035052 | 33 | 202 | 0.0 | 1.7 | 0.00 | 0.33 | 0.33 | 80 | 982.1 |
| 20260507034550 | 33 | 200 | 0.0 | 2.6 | 0.00 | 0.33 | 0.33 | 80 | 982.0 |
| 20260507034051 | 33 | 194 | 0.0 | 1.7 | 0.00 | 0.33 | 0.33 | 81 | 982.0 |
| 20260507033553 | 32 | 184 | 0.0 | 5.2 | 0.00 | 0.33 | 0.33 | 81 | 982.0 |
| 20260507033050 | 32 | 176 | 0.0 | 5.2 | 0.00 | 0.33 | 0.33 | 82 | 981.9 |
| 20260507032550 | 32 | 167 | 0.0 | 1.7 | 0.00 | 0.33 | 0.33 | 82 | 981.9 |
| 20260507032050 | 32 | 134 | 0.0 | 1.7 | 0.00 | 0.33 | 0.33 | 83 | 981.9 |
| 20260507031550 | 32 | 162 | 0.0 | 0.9 | 0.00 | 0.33 | 0.33 | 83 | 981.9 |
| 20260507031049 | 32 | 196 | 0.0 | 2.6 | 0.00 | 0.33 | 0.33 | 82 | 981.9 |
| 20260507030548 | 32 | 171 | 0.9 | 2.6 | 0.00 | 0.33 | 0.33 | 81 | 981.8 |
| 20260507030052 | 33 | 168 | 2.6 | 4.3 | 0.00 | 0.33 | 0.33 | 81 | 981.7 |
| 20260507030048 | 33 | 176 | 0.9 | 4.3 | 0.00 | 0.33 | 0.33 | 81 | 981.8 |
| 20260507025548 | 33 | 192 | 1.7 | 4.3 | 0.00 | 0.33 | 0.33 | 81 | 981.7 |
| 20260507024548 | 33 | 158 | 2.6 | 6.1 | 0.00 | 0.33 | 0.33 | 80 | 981.7 |
| 20260507024048 | 33 | 165 | 2.6 | 6.1 | 0.00 | 0.33 | 0.33 | 80 | 981.5 |
| 20260507023548 | 33 | 169 | 2.6 | 6.1 | 0.00 | 0.33 | 0.33 | 80 | 981.5 |
| 20260507023048 | 33 | 169 | 2.6 | 6.1 | 0.00 | 0.33 | 0.33 | 81 | 981.5 |
| 20260507022548 | 33 | 173 | 2.6 | 7.8 | 0.00 | 0.33 | 0.33 | 81 | 981.5 |
| 20260507022051 | 34 | 172 | 2.6 | 7.0 | 0.00 | 0.33 | 0.33 | 80 | 981.5 |
| 20260507022047 | 34 | 150 | 2.6 | 7.8 | 0.00 | 0.33 | 0.33 | 80 | 981.5 |
| 20260507021048 | 34 | 188 | 2.6 | 7.0 | 0.00 | 0.33 | 0.33 | 80 | 981.5 |
| 20260507020548 | 34 | 155 | 1.7 | 5.2 | 0.00 | 0.33 | 0.33 | 79 | 981.5 |
| 20260507020048 | 34 | 172 | 1.7 | 5.2 | 0.00 | 0.33 | 0.33 | 79 | 981.7 |
| 20260507015548 | 34 | 154 | 1.7 | 4.3 | 0.00 | 0.33 | 0.33 | 79 | 981.5 |
| 20260507015052 | 35 | 180 | 0.9 | 2.6 | 0.01 | 0.33 | 0.33 | 77 | 981.5 |
| 20260507015048 | 34 | 198 | 0.9 | 4.3 | 0.01 | 0.33 | 0.33 | 78 | 981.5 |
| 20260507014048 | 35 | 141 | 0.0 | 2.6 | 0.01 | 0.33 | 0.33 | 76 | 981.7 |
| 20260507013548 | 35 | 174 | 0.0 | 1.7 | 0.01 | 0.33 | 0.33 | 76 | 981.7 |
| 20260507013046 | 36 | 179 | 0.0 | 1.7 | 0.02 | 0.33 | 0.33 | 75 | 981.5 |
| 20260507012546 | 36 | 135 | 0.0 | 0.9 | 0.02 | 0.33 | 0.33 | 74 | 981.7 |
| 20260507012046 | 37 | 189 | 0.0 | 0.9 | 0.02 | 0.33 | 0.33 | 73 | 981.7 |
| 20260507011552 | 38 | 190 | 0.0 | 0.9 | 0.03 | 0.33 | 0.33 | 70 | 981.7 |
| 20260507011546 | 37 | 163 | 0.0 | 0.9 | 0.03 | 0.33 | 0.33 | 72 | 981.7 |
| 20260507011046 | 38 | 193 | 0.0 | 0.9 | 0.03 | 0.33 | 0.33 | 71 | 981.8 |
| 20260507010046 | 39 | 200 | 0.0 | 1.7 | 0.04 | 0.33 | 0.33 | 67 | 981.7 |
| 20260507005545 | 40 | 136 | 0.0 | 2.6 | 0.04 | 0.33 | 0.33 | 66 | 981.7 |
| 20260507005046 | 40 | 137 | 0.0 | 2.6 | 0.04 | 0.32 | 0.32 | 66 | 981.7 |
| 20260507004546 | 40 | 215 | 0.9 | 3.5 | 0.04 | 0.32 | 0.32 | 67 | 981.8 |
| 20260507004046 | 40 | 148 | 1.7 | 4.3 | 0.05 | 0.32 | 0.32 | 66 | 981.7 |
| 20260507003544 | 40 | 151 | 0.9 | 4.3 | 0.05 | 0.32 | 0.32 | 66 | 981.7 |
| 20260507003044 | 40 | 146 | 0.0 | 3.5 | 0.05 | 0.31 | 0.31 | 65 | 981.7 |
| 20260507002544 | 40 | 169 | 0.0 | 1.7 | 0.06 | 0.31 | 0.31 | 65 | 981.7 |
| 20260507002042 | 40 | 180 | 0.9 | 3.5 | 0.06 | 0.31 | 0.31 | 66 | 981.7 |
| 20260507001546 | 40 | 196 | 0.0 | 3.5 | 0.07 | 0.30 | 0.30 | 64 | 981.8 |
| 20260507001542 | 40 | 160 | 0.9 | 3.5 | 0.06 | 0.30 | 0.30 | 64 | 981.7 |
| 20260507000540 | 40 | 148 | 0.9 | 3.5 | 0.07 | 0.30 | 0.30 | 65 | 981.8 |
| 20260507000040 | 40 | 168 | 0.9 | 3.5 | 0.07 | 0.29 | 0.29 | 63 | 981.8 |
| 20260506235540 | 42 | 169 | 0.0 | 3.5 | 0.07 | 0.29 | 0.29 | 60 | 981.8 |
| 20260506235044 | 42 | 131 | 0.0 | 1.7 | 0.07 | 0.28 | 0.28 | 61 | 981.8 |
| 20260506235040 | 42 | 188 | 0.0 | 1.7 | 0.07 | 0.28 | 0.29 | 62 | 981.8 |
| 20260506234645 | 42 | 136 | 0.0 | 1.7 | 0.07 | 0.27 | 0.27 | 62 | 981.8 |
| 20260506233543 | 42 | 186 | 0.0 | 0.9 | 0.07 | 0.27 | 0.27 | 60 | 981.9 |
| 20260506233539 | 42 | 217 | 0.0 | 0.9 | 0.07 | 0.27 | 0.26 | 61 | 981.9 |
| 20260506232538 | 42 | 142 | 0.0 | 0.0 | 0.06 | 0.26 | 0.25 | 63 | 982.0 |
| 20260506232036 | 41 | 262 | 0.0 | 0.9 | 0.07 | 0.26 | 0.25 | 63 | 982.1 |
| 20260506231536 | 42 | 295 | 0.0 | 0.9 | 0.07 | 0.25 | 0.24 | 63 | 981.9 |
| 20260506231036 | 41 | 111 | 0.0 | 0.9 | 0.06 | 0.24 | 0.24 | 62 | 982.0 |
| 20260506230539 | 40 | 108 | 0.0 | 0.9 | 0.07 | 0.23 | 0.22 | 66 | 981.9 |
| 20260506230535 | 41 | 0 | 0.0 | 0.9 | 0.07 | 0.24 | 0.23 | 65 | 981.8 |
| 20260506225535 | 40 | 131 | 0.0 | 0.9 | 0.08 | 0.23 | 0.22 | 69 | 981.9 |
| 20260506225035 | 38 | 120 | 0.0 | 0.9 | 0.07 | 0.22 | 0.21 | 69 | 982.0 |
| 20260506224535 | 38 | 195 | 0.0 | 0.9 | 0.08 | 0.22 | 0.21 | 67 | 982.0 |
| 20260506224035 | 38 | 39 | 0.0 | 0.9 | 0.07 | 0.21 | 0.20 | 70 | 982.0 |